Telluride, CO

4:38 PM MST on November 18, 2019 (GMT -0700)
Telluride Regional

Weather History for KTEX - July, 2019

Change the Weather History Date:

Monday, July 22, 2019

  Actual Average Record
Temperature  
Mean Temperature 65 °F -  
Max Temperature 77 °F 71 °F 84 °F (2005)
Min Temperature 53 °F 49 °F 48 °F (2001)
Growing Degree Days 15 (Base 50)    
Moisture  
Dew Point 40 °F    
Average Humidity 48    
Maximum Humidity 88    
Minimum Humidity 21    
Precipitation  
Precipitation 0.13 in - - ()
Sea Level Pressure  
Sea Level Pressure 30.57 in    
Wind  
Wind Speed 3 mph (SE)    
Max Wind Speed 14 mph    
Max Gust Speed 20 mph    
Visibility 10 miles    
Events Rain , Thunderstorm    
Averages and records for this station are not official NWS values.
T = Trace of Precipitation, MM = Missing Value Source: NWS Daily Summary

Daily Weather History Graph

Daily Weather History Graph

Search for Another Location

Airport or City:

Astronomy

Jul. 22, 2019 Rise Set
Actual Time 6:06 AM MDT 8:29 PM MDT
Civil Twilight 5:36 AM MDT 8:59 PM MDT
Nautical Twilight 4:59 AM MDT 9:36 PM MDT
Astronomical Twilight 4:18 AM MDT 10:16 PM MDT
Moon 11:56 PM MDT (7/22) 11:21 AM MDT (7/22)
Length of Visible Light 15h 22m
Length of Day
14h 22m
Waning Gibbous, 72% of the Moon is Illuminated
Jul 22
Waning Gibbous
Jul 24
Last Quarter
Jul 31
New
Aug 7
First Quarter
Aug 15
Full

Hourly Weather History & Observations

Time (MDT) Temp. Dew Point Humidity Pressure Visibility Wind Dir Wind Speed Gust Speed Precip Events Conditions
12:15 AM 60.8 °F 30.2 °F 31% 30.51 in 10.0 mi Calm Calm - N/A   Clear
12:35 AM 60.8 °F 30.2 °F 31% 30.51 in 10.0 mi SE 4.6 mph - N/A   Clear
12:50 AM 60.8 °F 28.4 °F 29% 30.51 in 10.0 mi ESE 3.5 mph - N/A   Scattered Clouds
1:15 AM 59.0 °F 30.2 °F 34% 30.51 in 10.0 mi ESE 5.8 mph - N/A   Clear
1:35 AM 59.0 °F 30.2 °F 34% 30.51 in 10.0 mi ESE 3.5 mph - N/A   Clear
1:55 AM 59.0 °F 30.2 °F 34% 30.50 in 10.0 mi SE 6.9 mph - N/A   Scattered Clouds
2:15 AM 59.0 °F 28.4 °F 31% 30.49 in 10.0 mi SE 8.1 mph - N/A   Scattered Clouds
2:35 AM 59.0 °F 30.2 °F 34% 30.49 in 10.0 mi SE 3.5 mph - N/A   Scattered Clouds
2:55 AM 59.0 °F 30.2 °F 34% 30.49 in 10.0 mi SSE 6.9 mph - N/A   Clear
3:15 AM 59.0 °F 30.2 °F 34% 30.49 in 10.0 mi East 3.5 mph - N/A   Clear
3:35 AM 59.0 °F 28.4 °F 31% 30.50 in 10.0 mi Calm Calm - N/A   Clear
3:55 AM 59.0 °F 28.4 °F 31% 30.51 in 10.0 mi Calm Calm - N/A   Scattered Clouds
4:15 AM 60.8 °F 28.4 °F 29% 30.51 in 10.0 mi Calm Calm - N/A   Clear
4:35 AM 62.6 °F 32.0 °F 32% 30.53 in 10.0 mi Calm Calm - N/A   Clear
4:55 AM 62.6 °F 32.0 °F 32% 30.53 in 10.0 mi East 3.5 mph - N/A   Scattered Clouds
5:15 AM 60.8 °F 32.0 °F 34% 30.54 in 10.0 mi ESE 5.8 mph - N/A   Scattered Clouds
5:35 AM 62.6 °F 33.8 °F 34% 30.55 in 10.0 mi Calm Calm - N/A   Scattered Clouds
5:55 AM 62.6 °F 33.8 °F 34% 30.55 in 10.0 mi Calm Calm - N/A   Scattered Clouds
6:15 AM 62.6 °F 33.8 °F 34% 30.55 in 10.0 mi ESE 6.9 mph - N/A   Clear
6:35 AM 62.6 °F 37.4 °F 39% 30.55 in 10.0 mi SE 5.8 mph - N/A   Clear
6:55 AM 64.4 °F 39.2 °F 40% 30.55 in 10.0 mi ESE 5.8 mph - N/A   Clear
7:15 AM 64.4 °F 41.0 °F 42% 30.55 in 10.0 mi SSE 4.6 mph - N/A   Clear
7:35 AM 64.4 °F 41.0 °F 42% 30.55 in 10.0 mi Calm Calm - N/A   Clear
7:55 AM 64.4 °F 41.0 °F 42% 30.55 in 10.0 mi Calm Calm - N/A   Clear
8:15 AM 66.2 °F 41.0 °F 40% 30.56 in 10.0 mi Calm Calm - N/A   Clear
8:35 AM 66.2 °F 42.8 °F 43% 30.57 in 10.0 mi Calm Calm - N/A   Clear
8:55 AM 68.0 °F 42.8 °F 40% 30.57 in 10.0 mi Calm Calm - N/A   Clear
9:15 AM 69.8 °F 41.0 °F 35% 30.57 in 10.0 mi Calm Calm - N/A   Clear
9:35 AM 69.8 °F 41.0 °F 35% 30.57 in 10.0 mi Calm Calm - N/A   Clear
9:55 AM 71.6 °F 39.2 °F 31% 30.57 in 10.0 mi Calm Calm - N/A   Clear
10:15 AM 73.4 °F 37.4 °F 27% 30.57 in 10.0 mi Calm Calm - N/A   Clear
10:35 AM 73.4 °F 37.4 °F 27% 30.57 in 10.0 mi Calm Calm - N/A   Clear
10:55 AM 75.2 °F 35.6 °F 24% 30.57 in 10.0 mi South 3.5 mph - N/A   Clear
11:15 AM 75.2 °F 33.8 °F 22% 30.57 in 10.0 mi South 3.5 mph - N/A   Clear
11:35 AM 77.0 °F 33.8 °F 21% 30.57 in 10.0 mi SW 3.5 mph - N/A   Clear
11:55 AM 75.2 °F 35.6 °F 24% 30.57 in 10.0 mi Calm Calm - N/A   Scattered Clouds
12:15 PM 73.4 °F 35.6 °F 25% 30.57 in 10.0 mi SSE 5.8 mph - N/A   Scattered Clouds
12:30 PM 71.6 °F 32.0 °F 23% 30.57 in 10.0 mi South 8.1 mph - N/A   Mostly Cloudy
12:55 PM 71.6 °F 33.8 °F 25% 30.57 in 10.0 mi ESE 10.4 mph - N/A Thunderstorm Scattered Clouds
1:15 PM 69.8 °F 33.8 °F 27% 30.59 in 10.0 mi South 8.1 mph - N/A Thunderstorm Thunderstorm
1:35 PM 68.0 °F 33.8 °F 28% 30.59 in 10.0 mi Calm Calm - N/A Rain Light Rain
1:55 PM 64.4 °F 42.8 °F 45% 30.61 in 10.0 mi NE 3.5 mph - N/A Rain , Thunderstorm Light Thunderstorms and Rain
2:15 PM 62.6 °F 42.8 °F 48% 30.61 in 10.0 mi East 13.8 mph 19.6 mph N/A Rain , Thunderstorm Light Thunderstorms and Rain
2:35 PM 62.6 °F 42.8 °F 48% 30.63 in 10.0 mi Calm Calm - N/A Rain , Thunderstorm Light Thunderstorms and Rain
2:55 PM 60.8 °F 44.6 °F 55% 30.64 in 10.0 mi Calm Calm - N/A Thunderstorm Unknown
3:15 PM 60.8 °F 44.6 °F 55% 30.66 in 10.0 mi East 8.1 mph - N/A Rain Light Rain
3:35 PM 60.8 °F 44.6 °F 55% 30.67 in 10.0 mi SE 4.6 mph - N/A Rain , Thunderstorm Thunderstorms and Rain
3:55 PM 57.2 °F 50.0 °F 77% 30.68 in 7.0 mi Calm Calm - 0.03 in Rain Rain
4:15 PM 53.6 °F 50.0 °F 88% 30.68 in 3.0 mi Calm Calm - 0.03 in Rain Rain
4:35 PM 53.6 °F 50.0 °F 88% 30.67 in 5.0 mi NE 3.5 mph - 0.07 in Rain Rain
4:55 PM 53.6 °F 50.0 °F 88% 30.66 in 7.0 mi NNE 4.6 mph - 0.09 in Rain Rain
5:15 PM 55.4 °F 46.4 °F 72% 30.64 in 10.0 mi ESE 9.2 mph - N/A Rain Light Rain
5:35 PM 55.4 °F 51.8 °F 88% 30.61 in 10.0 mi East 9.2 mph - N/A   Light Drizzle
5:55 PM 59.0 °F 50.0 °F 72% 30.60 in 10.0 mi SE 6.9 mph - N/A   Mostly Cloudy
6:15 PM 60.8 °F 46.4 °F 59% 30.59 in 10.0 mi SSE 5.8 mph - N/A   Mostly Cloudy
6:35 PM 59.0 °F 46.4 °F 63% 30.58 in 10.0 mi Calm Calm - N/A   Scattered Clouds
6:55 PM 59.0 °F 48.2 °F 67% 30.58 in 10.0 mi Calm Calm - N/A   Scattered Clouds
7:15 PM 59.0 °F 51.8 °F 77% 30.57 in 10.0 mi Calm Calm - N/A   Clear
7:35 PM 59.0 °F 51.8 °F 77% 30.57 in 10.0 mi Calm Calm - N/A   Clear
7:55 PM 59.0 °F 50.0 °F 72% 30.57 in 10.0 mi East 5.8 mph - N/A   Scattered Clouds
8:15 PM 57.2 °F 50.0 °F 77% 30.57 in 10.0 mi Calm Calm - N/A   Clear
8:35 PM 59.0 °F 48.2 °F 67% 30.56 in 10.0 mi SE 6.9 mph - N/A   Clear
8:55 PM 59.0 °F 46.4 °F 63% 30.56 in 10.0 mi SE 8.1 mph - N/A   Clear
9:15 PM 57.2 °F 48.2 °F 72% 30.56 in 10.0 mi SE 8.1 mph - N/A   Clear
9:35 PM 55.4 °F 48.2 °F 77% 30.58 in 10.0 mi ESE 5.8 mph - N/A   Clear
9:55 PM 57.2 °F 46.4 °F 67% 30.58 in 10.0 mi SE 5.8 mph - N/A   Clear
10:15 PM 57.2 °F 44.6 °F 63% 30.58 in 10.0 mi SSE 5.8 mph - 0.01 in   Clear
10:35 PM 55.4 °F 46.4 °F 72% 30.58 in 10.0 mi SE 4.6 mph - 0.01 in   Clear
10:55 PM 55.4 °F 44.6 °F 67% 30.58 in 10.0 mi SE 5.8 mph - 0.01 in   Clear
11:15 PM 55.4 °F 44.6 °F 67% 30.58 in 10.0 mi SE 5.8 mph - N/A   Clear
11:35 PM 55.4 °F 42.8 °F 63% 30.59 in 10.0 mi SE 9.2 mph - N/A   Clear
11:55 PM 55.4 °F 42.8 °F 63% 30.60 in 10.0 mi ENE 3.5 mph - N/A   Clear